Location: Unspecified
(0.0000°N, 0.0000°E)
Time: 20:17:27
(UTC+01:00)

Cosmos 1782 Rocket - Visible Passes

Search period start: 18 February 2019 00:00
Search period end: 28 February 2019 00:00
Orbit: 606 x 633 km, 82.5° (Epoch: 18 February)

Date Brightness Start Highest point End Pass type
(mag) Time Alt. Az. Time Alt. Az. Time Alt. Az.
21 Feb 6.5 21:39:17 10° SSW 21:39:27 11° SSW 21:39:27 11° SSW visible
22 Feb 5.5 20:19:45 10° SE 20:20:41 14° SE 20:20:41 14° SE visible
23 Feb 4.2 20:36:19 10° SSE 20:39:18 37° SE 20:39:18 37° SE visible
24 Feb 3.7 20:53:41 10° S 20:58:00 69° W 20:58:10 68° WNW visible
25 Feb 5.4 21:11:44 10° SW 21:15:29 28° W 21:17:22 20° NW visible
26 Feb 4.6 19:51:56 10° SSE 19:55:23 23° E 19:58:48 10° NE visible
26 Feb 6.6 21:31:06 10° WSW 21:32:57 13° W 21:34:49 10° WNW visible
27 Feb 3.6 20:08:38 10° S 20:12:52 54° E 20:17:04 10° NNE visible
